Time,TemperatureF,DewpointF,PressureIn,WindDirection,WindDirectionDegrees,WindSpeedMPH,WindSpeedGustMPH,Humidity,HourlyPrecipIn,Conditions,Clouds,dailyrainin,SolarRadiationWatts/m^2,SoftwareType,DateUTC
2013-01-22 00:01:00,43.1,20.4,29.95,West,261,0.0,0.0,40,0.00,FEW,,0.00,0.0,WeatherDisplay:10.37,2013-01-22 05:01:00,
2013-01-22 00:06:00,42.9,20.8,29.95,WSW,245,0.0,2.0,41,0.00,FEW,,0.00,0.0,WeatherDisplay:10.37,2013-01-22 05:06:00,
2013-01-22 00:11:00,42.8,20.7,29.95,SW,231,0.0,1.0,41,0.00,FEW,,0.00,0.0,WeatherDisplay:10.37,2013-01-22 05:11:00,
2013-01-22 00:16:00,42.6,20.5,29.95,SW,229,0.0,0.0,41,0.00,FEW,,0.00,0.0,WeatherDisplay:10.37,2013-01-22 05:16:00,
2013-01-22 00:21:00,42.5,21.0,29.95,SW,229,0.0,0.0,42,0.00,FEW,,0.00,0.0,WeatherDisplay:10.37,2013-01-22 05:21:00,
2013-01-22 00:26:00,42.3,20.9,29.95,SW,229,0.0,0.0,42,0.00,FEW,,0.00,0.0,WeatherDisplay:10.37,2013-01-22 05:26:00,
2013-01-22 01:16:00,40.6,22.0,29.96,West,261,0.0,0.0,47,0.00,FEW,,0.00,0.0,WeatherDisplay:10.37,2013-01-22 06:16:00,
2013-01-22 01:31:00,40.1,21.5,29.96,West,261,0.0,0.0,47,0.00,FEW,,0.00,0.0,WeatherDisplay:10.37,2013-01-22 06:31:00,
2013-01-22 01:36:00,39.9,21.8,29.97,West,261,0.0,0.0,48,0.00,FEW,,0.00,0.0,WeatherDisplay:10.37,2013-01-22 06:36:00,
2013-01-22 01:46:00,39.5,23.3,29.97,West,261,0.0,0.0,52,0.00,FEW,,0.00,0.0,WeatherDisplay:10.37,2013-01-22 06:46:00,
2013-01-22 01:51:00,39.2,22.6,29.97,West,261,0.0,1.0,51,0.00,FEW,,0.00,0.0,WeatherDisplay:10.37,2013-01-22 06:51:00,
2013-01-22 02:01:00,38.8,20.8,29.97,West,261,0.0,1.0,48,0.00,FEW,,0.00,0.0,WeatherDisplay:10.37,2013-01-22 07:01:00,
2013-01-22 02:11:00,38.6,20.6,29.97,West,268,0.0,4.0,48,0.00,FEW,,0.00,0.0,WeatherDisplay:10.37,2013-01-22 07:11:00,
2013-01-22 02:16:00,38.6,20.1,29.97,West,272,0.0,2.0,47,0.00,FEW,,0.00,0.0,WeatherDisplay:10.37,2013-01-22 07:16:00,
2013-01-22 02:21:00,38.6,20.1,29.98,West,268,0.0,2.0,47,0.00,FEW,,0.00,0.0,WeatherDisplay:10.37,2013-01-22 07:21:00,
2013-01-22 02:26:00,38.8,20.8,29.98,West,265,0.0,2.0,48,0.00,FEW,,0.00,0.0,WeatherDisplay:10.37,2013-01-22 07:26:00,
2013-01-22 02:36:00,38.8,20.3,29.99,West,265,0.0,2.0,47,0.00,FEW,,0.00,0.0,WeatherDisplay:10.37,2013-01-22 07:36:00,
2013-01-22 02:41:00,38.8,20.8,29.99,West,265,0.0,0.0,48,0.00,FEW,,0.00,0.0,WeatherDisplay:10.37,2013-01-22 07:41:00,
2013-01-22 02:46:00,38.6,20.6,29.99,West,265,0.0,0.0,48,0.00,FEW,,0.00,0.0,WeatherDisplay:10.37,2013-01-22 07:46:00,
2013-01-22 02:51:00,38.6,21.1,30.00,West,265,0.0,1.0,49,0.00,FEW,,0.00,0.0,WeatherDisplay:10.37,2013-01-22 07:51:00,
2013-01-22 02:56:00,38.5,21.0,30.00,West,265,0.0,0.0,49,0.00,FEW,,0.00,0.0,WeatherDisplay:10.37,2013-01-22 07:56:00,
2013-01-22 03:01:00,38.3,20.8,30.00,West,265,0.0,0.0,49,0.00,FEW,,0.00,0.0,WeatherDisplay:10.37,2013-01-22 08:01:00,
2013-01-22 03:11:00,38.0,20.5,30.00,ENE,71,0.0,2.0,49,0.00,FEW,,0.00,0.0,WeatherDisplay:10.37,2013-01-22 08:11:00,
2013-01-22 03:16:00,37.9,19.9,30.00,ENE,75,0.0,1.0,48,0.00,FEW,,0.00,0.0,WeatherDisplay:10.37,2013-01-22 08:16:00,
2013-01-22 03:21:00,37.8,18.8,30.00,ENE,63,0.0,2.0,46,0.00,FEW,,0.00,0.0,WeatherDisplay:10.37,2013-01-22 08:21:00,
2013-01-22 03:26:00,37.8,18.3,30.00,NE,44,0.0,2.0,45,0.00,FEW,,0.00,0.0,WeatherDisplay:10.37,2013-01-22 08:26:00,
2013-01-22 03:31:00,37.6,17.6,30.00,NE,35,0.0,1.0,44,0.00,FEW,,0.00,0.0,WeatherDisplay:10.37,2013-01-22 08:31:00,
2013-01-22 03:36:00,37.6,17.1,30.00,NNE,29,0.0,2.0,43,0.00,FEW,,0.00,0.0,WeatherDisplay:10.37,2013-01-22 08:36:00,
2013-01-22 03:41:00,37.5,17.5,30.00,NNE,20,0.0,1.0,44,0.00,FEW,,0.00,0.0,WeatherDisplay:10.37,2013-01-22 08:41:00,
2013-01-22 03:46:00,37.5,17.0,30.00,NNE,19,0.0,1.0,43,0.00,FEW,,0.00,0.0,WeatherDisplay:10.37,2013-01-22 08:46:00,
2013-01-22 03:51:00,37.3,17.4,30.00,NNE,20,0.0,1.0,44,0.00,FEW,,0.00,0.0,WeatherDisplay:10.37,2013-01-22 08:51:00,
2013-01-22 03:56:00,37.2,16.2,30.00,NNE,21,0.0,1.0,42,0.00,FEW,,0.00,0.0,WeatherDisplay:10.37,2013-01-22 08:56:00,
2013-01-22 04:01:00,37.2,17.8,30.00,NNE,21,0.0,1.0,45,0.00,FEW,,0.00,0.0,WeatherDisplay:10.37,2013-01-22 09:01:00,
2013-01-22 04:11:00,36.9,16.5,30.00,NNE,24,0.0,2.0,43,0.00,FEW,,0.00,0.0,WeatherDisplay:10.37,2013-01-22 09:11:00,
2013-01-22 04:16:00,36.9,17.0,30.00,NNE,25,0.0,2.0,44,0.00,FEW,,0.00,0.0,WeatherDisplay:10.37,2013-01-22 09:16:00,
2013-01-22 04:21:00,36.8,17.4,30.00,NNE,24,0.0,1.0,45,0.00,FEW,,0.00,0.0,WeatherDisplay:10.37,2013-01-22 09:21:00,
2013-01-22 04:26:00,36.6,17.7,30.01,NNE,24,0.0,0.0,46,0.00,FEW,,0.00,0.0,WeatherDisplay:10.37,2013-01-22 09:26:00,
2013-01-22 04:36:00,36.3,16.9,30.02,NNE,24,0.0,1.0,45,0.00,FEW,,0.00,0.0,WeatherDisplay:10.37,2013-01-22 09:36:00,
2013-01-22 04:41:00,36.0,16.7,30.03,NNE,22,0.0,2.0,45,0.00,FEW,,0.00,0.0,WeatherDisplay:10.37,2013-01-22 09:41:00,
2013-01-22 04:46:00,35.9,16.6,30.03,NNE,14,1.0,5.0,45,0.00,FEW,,0.00,0.0,WeatherDisplay:10.37,2013-01-22 09:46:00,
2013-01-22 04:51:00,35.8,17.0,30.03,NNE,16,0.0,2.0,46,0.00,FEW,,0.00,0.0,WeatherDisplay:10.37,2013-01-22 09:51:00,
2013-01-22 04:56:00,35.6,16.8,30.03,NNE,30,0.0,2.0,46,0.00,FEW,,0.00,0.0,WeatherDisplay:10.37,2013-01-22 09:56:00,
2013-01-22 05:01:00,35.5,16.7,30.03,NNE,23,1.0,2.0,46,0.00,FEW,,0.00,0.0,WeatherDisplay:10.37,2013-01-22 10:01:00,
2013-01-22 05:11:00,35.0,14.2,30.04,NNE,25,2.0,5.0,42,0.00,FEW,,0.00,0.0,WeatherDisplay:10.37,2013-01-22 10:11:00,
2013-01-22 05:16:00,35.0,14.2,30.05,NNE,20,1.0,6.0,42,0.00,FEW,,0.00,0.0,WeatherDisplay:10.37,2013-01-22 10:16:00,
2013-01-22 05:21:00,34.9,14.1,30.05,NNE,22,1.0,2.0,42,0.00,FEW,,0.00,0.0,WeatherDisplay:10.37,2013-01-22 10:21:00,
2013-01-22 05:26:00,34.7,12.8,30.05,NNE,23,1.0,5.0,40,0.00,FEW,,0.00,0.0,WeatherDisplay:10.37,2013-01-22 10:26:00,
2013-01-22 05:31:00,34.6,12.7,30.06,NNE,23,0.0,1.0,40,0.00,FEW,,0.00,0.0,WeatherDisplay:10.37,2013-01-22 10:31:00,
2013-01-22 05:36:00,34.5,12.7,30.06,NNE,29,0.0,0.0,40,0.00,FEW,,0.00,0.0,WeatherDisplay:10.37,2013-01-22 10:36:00,
2013-01-22 05:41:00,34.4,14.2,30.06,NNE,29,0.0,0.0,43,0.00,FEW,,0.00,0.0,WeatherDisplay:10.37,2013-01-22 10:41:00,
2013-01-22 05:46:00,34.3,11.8,30.07,NNE,23,1.0,5.0,39,0.00,FEW,,0.00,0.0,WeatherDisplay:10.37,2013-01-22 10:46:00,
2013-01-22 05:51:00,34.0,11.6,30.07,North,7,1.0,5.0,39,0.00,FEW,,0.00,0.0,WeatherDisplay:10.37,2013-01-22 10:51:00,
2013-01-22 05:56:00,33.9,11.0,30.08,North,3,2.0,5.0,38,0.00,FEW,,0.00,0.0,WeatherDisplay:10.37,2013-01-22 10:56:00,
2013-01-22 06:01:00,33.8,10.2,30.08,NNE,20,1.0,3.0,37,0.00,FEW,,0.00,0.0,WeatherDisplay:10.37,2013-01-22 11:01:00,
2013-01-22 06:11:00,33.7,10.7,30.09,NNE,20,0.0,1.0,38,0.00,FEW,,0.00,0.0,WeatherDisplay:10.37,2013-01-22 11:11:00,
2013-01-22 06:16:00,33.5,11.2,30.09,NNE,22,0.0,1.0,39,0.00,FEW,,0.00,0.0,WeatherDisplay:10.37,2013-01-22 11:16:00,
2013-01-22 06:21:00,33.4,11.1,30.09,NNE,22,0.0,1.0,39,0.00,FEW,,0.00,0.0,WeatherDisplay:10.37,2013-01-22 11:21:00,
2013-01-22 06:26:00,33.2,11.4,30.09,NNE,24,0.0,1.0,40,0.00,FEW,,0.00,0.0,WeatherDisplay:10.37,2013-01-22 11:26:00,
2013-01-22 06:31:00,32.9,11.2,30.10,NNE,20,1.0,3.0,40,0.00,FEW,,0.00,0.0,WeatherDisplay:10.37,2013-01-22 11:31:00,
2013-01-22 06:36:00,32.8,10.5,30.10,NNE,20,1.0,5.0,39,0.00,FEW,,0.00,0.0,WeatherDisplay:10.37,2013-01-22 11:36:00,
2013-01-22 06:41:00,32.7,9.8,30.10,NNE,25,1.0,5.0,38,0.00,FEW,,0.00,0.0,WeatherDisplay:10.37,2013-01-22 11:41:00,
2013-01-22 06:46:00,32.5,8.5,30.11,NNE,24,2.0,5.0,36,0.00,FEW,,0.00,0.0,WeatherDisplay:10.37,2013-01-22 11:46:00,
2013-01-22 06:51:00,32.5,9.0,30.11,NNE,18,1.0,5.0,37,0.00,FEW,,0.00,0.0,WeatherDisplay:10.37,2013-01-22 11:51:00,
2013-01-22 06:56:00,32.4,8.4,30.11,NNE,18,0.0,5.0,36,0.00,FEW,,0.00,0.0,WeatherDisplay:10.37,2013-01-22 11:56:00,
2013-01-22 07:06:00,32.2,6.9,30.11,North,6,2.0,6.0,34,0.00,FEW,,0.00,0.0,WeatherDisplay:10.37,2013-01-22 12:06:00,
2013-01-22 07:11:00,32.1,6.8,30.12,NNE,13,1.0,5.0,34,0.00,FEW,,0.00,0.0,WeatherDisplay:10.37,2013-01-22 12:11:00,
2013-01-22 07:16:00,32.1,7.5,30.12,NE,36,1.0,2.0,35,0.00,FEW,,0.00,0.0,WeatherDisplay:10.37,2013-01-22 12:16:00,
2013-01-22 07:21:00,31.9,6.7,30.12,NNE,28,1.0,3.0,34,0.00,FEW,,0.00,0.0,WeatherDisplay:10.37,2013-01-22 12:21:00,
2013-01-22 07:26:00,31.8,7.2,30.12,NNE,21,1.0,3.0,35,0.00,FEW,,0.00,0.0,WeatherDisplay:10.37,2013-01-22 12:26:00,
2013-01-22 07:31:00,31.8,7.8,30.12,NNE,24,0.0,2.0,36,0.00,FEW,,0.00,5.8,WeatherDisplay:10.37,2013-01-22 12:31:00,
2013-01-22 07:36:00,31.6,6.4,30.13,NNE,22,1.0,2.0,34,0.00,FEW,,0.00,10.4,WeatherDisplay:10.37,2013-01-22 12:36:00,
2013-01-22 07:41:00,31.6,5.7,30.14,NNE,28,0.0,1.0,33,0.00,FEW,,0.00,12.6,WeatherDisplay:10.37,2013-01-22 12:41:00,
2013-01-22 07:46:00,31.5,6.3,30.14,NE,34,0.0,0.0,34,0.00,FEW,,0.00,13.8,WeatherDisplay:10.37,2013-01-22 12:46:00,
2013-01-22 07:51:00,31.5,6.9,30.14,NE,34,0.0,0.0,35,0.00,FEW,,0.00,16.1,WeatherDisplay:10.37,2013-01-22 12:51:00,
2013-01-22 07:56:00,31.4,7.5,30.14,NE,36,1.0,3.0,36,0.00,FEW,,0.00,18.4,WeatherDisplay:10.37,2013-01-22 12:56:00,
2013-01-22 08:01:00,31.3,8.0,30.14,NNE,24,0.0,2.0,37,0.00,FEW,,0.00,18.4,WeatherDisplay:10.37,2013-01-22 13:01:00,
2013-01-22 08:11:00,31.2,7.9,30.14,North,355,1.0,5.0,37,0.00,FEW,,0.00,21.8,WeatherDisplay:10.37,2013-01-22 13:11:00,
2013-01-22 08:16:00,31.2,6.7,30.14,NNE,14,1.0,6.0,35,0.00,FEW,,0.00,21.8,WeatherDisplay:10.37,2013-01-22 13:16:00,
2013-01-22 08:21:00,31.3,8.6,30.15,NNE,20,0.0,3.0,38,0.00,FEW,,0.00,24.2,WeatherDisplay:10.37,2013-01-22 13:21:00,
2013-01-22 08:26:00,31.3,7.4,30.15,North,11,2.0,5.0,36,0.00,FEW,,0.00,24.2,WeatherDisplay:10.37,2013-01-22 13:26:00,
2013-01-22 08:31:00,31.3,7.4,30.16,North,11,1.0,6.0,36,0.00,FEW,,0.00,26.5,WeatherDisplay:10.37,2013-01-22 13:31:00,
2013-01-22 08:36:00,31.5,8.2,30.16,North,10,0.0,5.0,37,0.00,FEW,,0.00,26.5,WeatherDisplay:10.37,2013-01-22 13:36:00,
2013-01-22 08:41:00,31.5,8.2,30.16,NNE,16,1.0,5.0,37,0.00,FEW,,0.00,28.7,WeatherDisplay:10.37,2013-01-22 13:41:00,
2013-01-22 08:46:00,31.6,8.3,30.16,NNE,17,2.0,5.0,37,0.00,FEW,,0.00,29.9,WeatherDisplay:10.37,2013-01-22 13:46:00,
2013-01-22 08:51:00,31.7,7.2,30.16,North,1,2.0,7.0,35,0.00,FEW,,0.00,29.9,WeatherDisplay:10.37,2013-01-22 13:51:00,
2013-01-22 08:56:00,31.8,7.8,30.17,North,6,0.0,5.0,36,0.00,FEW,,0.00,32.2,WeatherDisplay:10.37,2013-01-22 13:56:00,
2013-01-22 09:06:00,31.9,9.1,30.17,North,7,1.0,2.0,38,0.00,SCT,,0.00,32.2,WeatherDisplay:10.37,2013-01-22 14:06:00,
2013-01-22 09:11:00,32.1,7.5,30.17,North,6,1.0,5.0,35,0.00,SCT,,0.00,34.5,WeatherDisplay:10.37,2013-01-22 14:11:00,
2013-01-22 09:16:00,32.2,8.2,30.17,NNE,22,1.0,5.0,36,0.00,SCT,,0.00,34.5,WeatherDisplay:10.37,2013-01-22 14:16:00,
2013-01-22 09:26:00,32.5,7.8,30.18,North,4,2.0,6.0,35,0.00,SCT,,0.00,34.5,WeatherDisplay:10.37,2013-01-22 14:26:00,
2013-01-22 09:31:00,32.7,7.4,30.19,NNE,14,2.0,5.0,34,0.00,SCT,,0.00,34.5,WeatherDisplay:10.37,2013-01-22 14:31:00,
2013-01-22 09:36:00,32.8,6.8,30.19,NNE,18,1.0,5.0,33,0.00,SCT,,0.00,36.8,WeatherDisplay:10.37,2013-01-22 14:36:00,
2013-01-22 09:41:00,33.0,8.3,30.19,North,4,1.0,7.0,35,0.00,SCT,,0.00,36.8,WeatherDisplay:10.37,2013-01-22 14:41:00,
2013-01-22 09:46:00,33.2,7.8,30.19,NNE,15,2.0,6.0,34,0.00,SCT,,0.00,36.8,WeatherDisplay:10.37,2013-01-22 14:46:00,
2013-01-22 09:51:00,33.4,8.0,30.19,North,351,2.0,5.0,34,0.00,SCT,,0.00,36.8,WeatherDisplay:10.37,2013-01-22 14:51:00,
2013-01-22 09:56:00,33.5,7.4,30.19,North,4,5.0,8.0,33,0.00,SCT,,0.00,36.8,WeatherDisplay:10.37,2013-01-22 14:56:00,
2013-01-22 10:01:00,33.5,6.0,30.19,NNE,13,3.0,8.0,31,0.00,SCT,,0.00,36.8,WeatherDisplay:10.37,2013-01-22 15:01:00,
2013-01-22 10:11:00,33.7,6.3,30.19,NNE,13,3.0,6.0,31,0.00,SCT,,0.00,37.9,WeatherDisplay:10.37,2013-01-22 15:11:00,
2013-01-22 10:16:00,34.0,5.7,30.19,NNE,15,3.0,7.0,30,0.00,SCT,,0.00,37.9,WeatherDisplay:10.37,2013-01-22 15:16:00,
2013-01-22 10:21:00,34.3,6.1,30.19,North,11,2.0,7.0,30,0.00,SCT,,0.00,487.6,WeatherDisplay:10.37,2013-01-22 15:21:00,
2013-01-22 10:26:00,35.3,9.0,30.19,North,356,1.0,5.0,33,0.00,SCT,,0.00,487.6,WeatherDisplay:10.37,2013-01-22 15:26:00,
2013-01-22 10:31:00,35.8,7.4,30.20,NNW,344,1.0,6.0,30,0.00,SCT,,0.00,495.7,WeatherDisplay:10.37,2013-01-22 15:31:00,
2013-01-22 10:36:00,36.1,6.8,30.20,North,351,2.0,6.0,29,0.00,SCT,,0.00,503.7,WeatherDisplay:10.37,2013-01-22 15:36:00,
2013-01-22 10:41:00,36.3,6.3,30.20,NNW,331,2.0,6.0,28,0.00,SCT,,0.00,511.8,WeatherDisplay:10.37,2013-01-22 15:41:00,
2013-01-22 10:46:00,36.3,7.0,30.20,NNW,345,3.0,7.0,29,0.00,SCT,,0.00,488.7,WeatherDisplay:10.37,2013-01-22 15:46:00,
2013-01-22 10:56:00,36.3,5.5,30.19,North,1,1.0,7.0,27,0.00,SCT,,0.00,279.4,WeatherDisplay:10.37,2013-01-22 15:56:00,
2013-01-22 11:01:00,36.5,6.4,30.20,North,352,2.0,6.0,28,0.00,SCT,,0.00,388.7,WeatherDisplay:10.37,2013-01-22 16:01:00,
2013-01-22 11:11:00,36.9,6.8,30.20,North,354,2.0,6.0,28,0.00,SCT,,0.00,541.7,WeatherDisplay:10.37,2013-01-22 16:11:00,
2013-01-22 11:16:00,36.9,6.8,30.19,North,4,1.0,6.0,28,0.00,SCT,,0.00,208.1,WeatherDisplay:10.37,2013-01-22 16:16:00,
2013-01-22 11:21:00,36.9,6.8,30.19,North,6,3.0,5.0,28,0.00,SCT,,0.00,205.9,WeatherDisplay:10.37,2013-01-22 16:21:00,
2013-01-22 11:26:00,36.9,6.8,30.19,North,356,1.0,2.0,28,0.00,SCT,,0.00,139.1,WeatherDisplay:10.37,2013-01-22 16:26:00,
2013-01-22 11:31:00,36.9,7.6,30.19,NNW,339,1.0,5.0,29,0.00,SCT,,0.00,79.4,WeatherDisplay:10.37,2013-01-22 16:31:00,
2013-01-22 11:36:00,37.0,6.1,30.19,NW,312,3.0,7.0,27,0.00,SCT,,0.00,133.4,WeatherDisplay:10.37,2013-01-22 16:36:00,
2013-01-22 11:41:00,37.1,6.9,30.19,NW,309,2.0,7.0,28,0.00,SCT,,0.00,363.4,WeatherDisplay:10.37,2013-01-22 16:41:00,
2013-01-22 11:46:00,37.2,6.2,30.19,NNW,331,2.0,6.0,27,0.00,SCT,,0.00,530.2,WeatherDisplay:10.37,2013-01-22 16:46:00,
2013-01-22 11:51:00,37.7,8.2,30.19,NNW,345,1.0,5.0,29,0.00,SCT,,0.00,378.3,WeatherDisplay:10.37,2013-01-22 16:51:00,
2013-01-22 11:56:00,38.1,7.0,30.19,North,351,2.0,8.0,27,0.00,SCT,,0.00,333.5,WeatherDisplay:10.37,2013-01-22 16:56:00,
2013-01-22 12:01:00,38.2,6.3,30.18,North,349,3.0,7.0,26,0.00,SCT,,0.00,285.2,WeatherDisplay:10.37,2013-01-22 17:01:00,
2013-01-22 12:11:00,38.8,5.9,30.18,NW,316,5.0,8.0,25,0.00,SCT,,0.00,293.3,WeatherDisplay:10.37,2013-01-22 17:11:00,
2013-01-22 12:16:00,38.8,5.0,30.17,WNW,294,3.0,7.0,24,0.00,SCT,,0.00,333.5,WeatherDisplay:10.37,2013-01-22 17:16:00,
2013-01-22 12:21:00,38.8,5.9,30.17,WNW,292,3.0,7.0,25,0.00,SCT,,0.00,362.3,WeatherDisplay:10.37,2013-01-22 17:21:00,
2013-01-22 12:26:00,38.9,6.0,30.17,NNW,339,3.0,6.0,25,0.00,SCT,,0.00,576.2,WeatherDisplay:10.37,2013-01-22 17:26:00,
2013-01-22 12:31:00,38.8,6.8,30.16,North,1,5.0,6.0,26,0.00,SCT,,0.00,552.0,WeatherDisplay:10.37,2013-01-22 17:31:00,
2013-01-22 12:36:00,39.1,6.2,30.16,North,353,3.0,6.0,25,0.00,SCT,,0.00,466.9,WeatherDisplay:10.37,2013-01-22 17:36:00,
2013-01-22 12:41:00,39.3,7.2,30.16,NW,312,2.0,5.0,26,0.00,SCT,,0.00,622.2,WeatherDisplay:10.37,2013-01-22 17:41:00,
2013-01-22 12:46:00,39.3,3.6,30.16,WNW,296,2.0,9.0,22,0.00,SCT,,0.00,600.3,WeatherDisplay:10.37,2013-01-22 17:46:00,
2013-01-22 12:51:00,39.3,4.5,30.16,NW,326,2.0,6.0,23,0.00,SCT,,0.00,552.0,WeatherDisplay:10.37,2013-01-22 17:51:00,
2013-01-22 12:56:00,39.3,3.6,30.16,NNE,12,3.0,9.0,22,0.00,SCT,,0.00,579.6,WeatherDisplay:10.37,2013-01-22 17:56:00,
2013-01-22 13:01:00,39.3,3.6,30.16,NNW,346,5.0,8.0,22,0.00,FEW,,0.00,230.0,WeatherDisplay:10.37,2013-01-22 18:01:00,
2013-01-22 13:11:00,39.4,3.7,30.15,WNW,297,2.0,6.0,22,0.00,FEW,,0.00,151.8,WeatherDisplay:10.37,2013-01-22 18:11:00,
2013-01-22 13:16:00,39.5,4.7,30.15,NNW,338,2.0,7.0,23,0.00,FEW,,0.00,62.1,WeatherDisplay:10.37,2013-01-22 18:16:00,
2013-01-22 13:21:00,39.5,4.7,30.15,North,355,2.0,6.0,23,0.00,FEW,,0.00,90.8,WeatherDisplay:10.37,2013-01-22 18:21:00,
2013-01-22 13:26:00,39.5,5.6,30.15,NW,320,2.0,6.0,24,0.00,FEW,,0.00,139.1,WeatherDisplay:10.37,2013-01-22 18:26:00,
2013-01-22 13:31:00,39.6,4.7,30.15,NW,315,2.0,7.0,23,0.00,FEW,,0.00,69.0,WeatherDisplay:10.37,2013-01-22 18:31:00,
2013-01-22 13:36:00,39.5,3.7,30.15,NW,326,2.0,8.0,22,0.00,FEW,,0.00,253.0,WeatherDisplay:10.37,2013-01-22 18:36:00,
2013-01-22 13:46:00,39.0,3.3,30.15,North,354,2.0,7.0,22,0.00,FEW,,0.00,61.0,WeatherDisplay:10.37,2013-01-22 18:46:00,
2013-01-22 13:51:00,39.2,3.4,30.15,NNW,327,1.0,5.0,22,0.00,FEW,,0.00,54.0,WeatherDisplay:10.37,2013-01-22 18:51:00,
2013-01-22 13:56:00,39.5,4.7,30.15,NW,306,2.0,5.0,23,0.00,FEW,,0.00,46.0,WeatherDisplay:10.37,2013-01-22 18:56:00,
2013-01-22 14:01:00,39.4,0.4,30.15,WSW,249,3.0,12.0,19,0.00,FEW,,0.00,71.3,WeatherDisplay:10.37,2013-01-22 19:01:00,
2013-01-22 14:11:00,39.5,1.6,30.15,West,271,2.0,7.0,20,0.00,FEW,,0.00,96.6,WeatherDisplay:10.37,2013-01-22 19:11:00,
2013-01-22 14:16:00,39.5,1.7,30.15,WNW,298,2.0,6.0,20,0.00,FEW,,0.00,189.7,WeatherDisplay:10.37,2013-01-22 19:16:00,
2013-01-22 14:21:00,39.5,-0.6,30.15,West,281,2.0,8.0,18,0.00,FEW,,0.00,64.4,WeatherDisplay:10.37,2013-01-22 19:21:00,
2013-01-22 14:26:00,39.5,-0.6,30.15,WNW,295,3.0,8.0,18,0.00,FEW,,0.00,46.0,WeatherDisplay:10.37,2013-01-22 19:26:00,
2013-01-22 14:31:00,39.6,2.8,30.14,NW,316,1.0,6.0,21,0.00,FEW,,0.00,50.6,WeatherDisplay:10.37,2013-01-22 19:31:00,
2013-01-22 14:36:00,39.8,3.0,30.14,NNW,339,2.0,7.0,21,0.00,FEW,,0.00,429.0,WeatherDisplay:10.37,2013-01-22 19:36:00,
2013-01-22 14:41:00,39.9,5.0,30.14,NW,306,3.0,6.0,23,0.00,FEW,,0.00,397.9,WeatherDisplay:10.37,2013-01-22 19:41:00,
2013-01-22 14:46:00,40.1,2.2,30.14,NNW,333,5.0,7.0,20,0.00,FEW,,0.00,282.9,WeatherDisplay:10.37,2013-01-22 19:46:00,
2013-01-22 14:51:00,39.9,3.1,30.14,NNW,338,1.0,5.0,21,0.00,FEW,,0.00,69.0,WeatherDisplay:10.37,2013-01-22 19:51:00,
2013-01-22 14:56:00,40.1,3.2,30.14,WNW,302,3.0,9.0,21,0.00,FEW,,0.00,263.3,WeatherDisplay:10.37,2013-01-22 19:56:00,
2013-01-22 15:01:00,39.9,2.0,30.14,West,272,2.0,6.0,20,0.00,FEW,,0.00,167.9,WeatherDisplay:10.37,2013-01-22 20:01:00,
2013-01-22 15:11:00,40.2,3.3,30.15,WNW,298,2.0,5.0,21,0.00,FEW,,0.00,296.7,WeatherDisplay:10.37,2013-01-22 20:11:00,
2013-01-22 15:16:00,40.3,3.4,30.14,NW,309,3.0,6.0,21,0.00,FEW,,0.00,347.3,WeatherDisplay:10.37,2013-01-22 20:16:00,
2013-01-22 15:21:00,40.2,3.3,30.15,North,352,3.0,7.0,21,0.00,FEW,,0.00,331.2,WeatherDisplay:10.37,2013-01-22 20:21:00,
2013-01-22 15:26:00,40.1,1.1,30.15,NNE,13,2.0,6.0,19,0.00,FEW,,0.00,165.6,WeatherDisplay:10.37,2013-01-22 20:26:00,
2013-01-22 15:31:00,40.1,3.2,30.15,NNW,346,2.0,5.0,21,0.00,FEW,,0.00,54.0,WeatherDisplay:10.37,2013-01-22 20:31:00,
2013-01-22 15:36:00,40.1,1.1,30.15,West,281,1.0,5.0,19,0.00,FEW,,0.00,85.1,WeatherDisplay:10.37,2013-01-22 20:36:00,
2013-01-22 15:41:00,40.1,3.2,30.16,NW,307,2.0,6.0,21,0.00,FEW,,0.00,66.7,WeatherDisplay:10.37,2013-01-22 20:41:00,
2013-01-22 15:51:00,39.9,2.0,30.16,WNW,298,2.0,4.0,20,0.00,FEW,,0.00,74.8,WeatherDisplay:10.37,2013-01-22 20:51:00,
2013-01-22 15:56:00,39.8,4.0,30.16,NNW,332,0.0,3.0,22,0.00,FEW,,0.00,58.7,WeatherDisplay:10.37,2013-01-22 20:56:00,
2013-01-22 16:01:00,39.6,2.8,30.16,WNW,292,1.0,4.0,21,0.00,FEW,,0.00,77.1,WeatherDisplay:10.37,2013-01-22 21:01:00,
2013-01-22 16:11:00,39.2,1.4,30.16,NNW,332,1.0,7.0,20,0.00,FEW,,0.00,29.9,WeatherDisplay:10.37,2013-01-22 21:11:00,
2013-01-22 16:16:00,39.1,2.4,30.16,NW,322,1.0,5.0,21,0.00,FEW,,0.00,28.7,WeatherDisplay:10.37,2013-01-22 21:16:00,
2013-01-22 16:21:00,38.9,3.2,30.16,NNW,339,0.0,3.0,22,0.00,FEW,,0.00,26.5,WeatherDisplay:10.37,2013-01-22 21:21:00,
2013-01-22 16:26:00,38.8,4.1,30.16,NW,310,0.0,1.0,23,0.00,FEW,,0.00,26.5,WeatherDisplay:10.37,2013-01-22 21:26:00,
2013-01-22 16:36:00,38.5,3.8,30.17,NW,317,1.0,4.0,23,0.00,FEW,,0.00,24.2,WeatherDisplay:10.37,2013-01-22 21:36:00,
2013-01-22 16:41:00,38.3,3.7,30.16,West,281,0.0,2.0,23,0.00,FEW,,0.00,21.8,WeatherDisplay:10.37,2013-01-22 21:41:00,
2013-01-22 16:46:00,38.2,2.6,30.16,WSW,251,2.0,7.0,22,0.00,FEW,,0.00,20.7,WeatherDisplay:10.37,2013-01-22 21:46:00,
2013-01-22 16:51:00,38.0,3.4,30.17,WNW,285,0.0,1.0,23,0.00,FEW,,0.00,20.7,WeatherDisplay:10.37,2013-01-22 21:51:00,
2013-01-22 16:56:00,37.9,4.3,30.17,North,6,0.0,1.0,24,0.00,FEW,,0.00,18.4,WeatherDisplay:10.37,2013-01-22 21:56:00,
2013-01-22 17:01:00,37.8,5.1,30.18,NNW,347,0.0,2.0,25,0.00,FEW,,0.00,16.1,WeatherDisplay:10.37,2013-01-22 22:01:00,
2013-01-22 17:06:00,37.7,5.0,30.18,NW,305,0.0,4.0,25,0.00,FEW,,0.00,13.8,WeatherDisplay:10.37,2013-01-22 22:06:00,
2013-01-22 17:11:00,37.5,5.7,30.18,West,269,0.0,2.0,26,0.00,FEW,,0.00,12.6,WeatherDisplay:10.37,2013-01-22 22:11:00,
2013-01-22 17:16:00,37.3,4.6,30.18,WNW,284,1.0,2.0,25,0.00,FEW,,0.00,10.4,WeatherDisplay:10.37,2013-01-22 22:16:00,
2013-01-22 17:21:00,37.2,5.4,30.18,West,280,0.0,0.0,26,0.00,FEW,,0.00,8.0,WeatherDisplay:10.37,2013-01-22 22:21:00,
2013-01-22 17:26:00,37.0,4.4,30.18,West,271,0.0,0.0,25,0.00,FEW,,0.00,5.8,WeatherDisplay:10.37,2013-01-22 22:26:00,
2013-01-22 17:31:00,36.9,5.1,30.18,West,271,0.0,0.0,26,0.00,FEW,,0.00,0.0,WeatherDisplay:10.37,2013-01-22 22:31:00,
2013-01-22 17:36:00,36.8,5.1,30.18,West,271,0.0,0.0,26,0.00,FEW,,0.00,0.0,WeatherDisplay:10.37,2013-01-22 22:36:00,
2013-01-22 17:41:00,36.6,4.0,30.18,West,271,0.0,0.0,25,0.00,FEW,,0.00,0.0,WeatherDisplay:10.37,2013-01-22 22:41:00,
2013-01-22 17:46:00,36.5,4.8,30.18,West,271,0.0,0.0,26,0.00,FEW,,0.00,0.0,WeatherDisplay:10.37,2013-01-22 22:46:00,
2013-01-22 17:56:00,35.9,5.9,30.18,West,271,0.0,0.0,28,0.00,FEW,,0.00,0.0,WeatherDisplay:10.37,2013-01-22 22:56:00,
2013-01-22 18:01:00,35.6,5.6,30.18,West,271,0.0,0.0,28,0.00,FEW,,0.00,0.0,WeatherDisplay:10.37,2013-01-22 23:01:00,
2013-01-22 18:11:00,35.0,5.1,30.19,West,271,0.0,0.0,28,0.00,FEW,,0.00,0.0,WeatherDisplay:10.37,2013-01-22 23:11:00,
2013-01-22 18:16:00,34.7,8.5,30.19,West,271,0.0,0.0,33,0.00,FEW,,0.00,0.0,WeatherDisplay:10.37,2013-01-22 23:16:00,
2013-01-22 18:21:00,34.4,8.9,30.19,West,271,0.0,0.0,34,0.00,FEW,,0.00,0.0,WeatherDisplay:10.37,2013-01-22 23:21:00,
2013-01-22 18:26:00,34.1,9.3,30.20,West,271,0.0,0.0,35,0.00,FEW,,0.00,0.0,WeatherDisplay:10.37,2013-01-22 23:26:00,
2013-01-22 18:31:00,33.8,9.6,30.21,West,271,0.0,0.0,36,0.00,FEW,,0.00,0.0,WeatherDisplay:10.37,2013-01-22 23:31:00,
2013-01-22 18:36:00,33.4,11.1,30.21,West,271,0.0,0.0,39,0.00,FEW,,0.00,0.0,WeatherDisplay:10.37,2013-01-22 23:36:00,
2013-01-22 18:41:00,33.1,12.5,30.21,West,271,0.0,0.0,42,0.00,FEW,,0.00,0.0,WeatherDisplay:10.37,2013-01-22 23:41:00,
2013-01-22 18:46:00,32.9,12.8,30.21,West,271,0.0,0.0,43,0.00,FEW,,0.00,0.0,WeatherDisplay:10.37,2013-01-22 23:46:00,
2013-01-22 18:51:00,32.7,13.7,30.21,West,271,0.0,0.0,45,0.00,FEW,,0.00,0.0,WeatherDisplay:10.37,2013-01-22 23:51:00,
2013-01-22 18:56:00,32.4,12.4,30.21,West,271,0.0,0.0,43,0.00,FEW,,0.00,0.0,WeatherDisplay:10.37,2013-01-22 23:56:00,
2013-01-22 19:01:00,32.1,11.6,30.21,West,271,0.0,0.0,42,0.00,CLR,,0.00,0.0,WeatherDisplay:10.37,2013-01-23 00:01:00,
2013-01-22 19:11:00,31.3,12.9,30.21,West,271,0.0,0.0,46,0.00,CLR,,0.00,0.0,WeatherDisplay:10.37,2013-01-23 00:11:00,
2013-01-22 19:16:00,31.0,12.6,30.21,West,271,0.0,0.0,46,0.00,CLR,,0.00,0.0,WeatherDisplay:10.37,2013-01-23 00:16:00,
2013-01-22 19:21:00,30.7,12.8,30.22,West,271,0.0,0.0,47,0.00,CLR,,0.00,0.0,WeatherDisplay:10.37,2013-01-23 00:21:00,
2013-01-22 19:26:00,30.4,12.5,30.22,West,271,0.0,0.0,47,0.00,CLR,,0.00,0.0,WeatherDisplay:10.37,2013-01-23 00:26:00,
2013-01-22 19:31:00,30.2,12.4,30.22,West,271,0.0,0.0,47,0.00,CLR,,0.00,0.0,WeatherDisplay:10.37,2013-01-23 00:31:00,
2013-01-22 19:36:00,30.0,13.1,30.22,West,271,0.0,0.0,49,0.00,CLR,,0.00,0.0,WeatherDisplay:10.37,2013-01-23 00:36:00,
2013-01-22 19:41:00,29.8,13.4,30.22,West,271,0.0,0.0,50,0.00,CLR,,0.00,0.0,WeatherDisplay:10.37,2013-01-23 00:41:00,
2013-01-22 19:46:00,29.7,15.1,30.22,West,271,0.0,0.0,54,0.00,CLR,,0.00,0.0,WeatherDisplay:10.37,2013-01-23 00:46:00,
2013-01-22 19:51:00,29.5,13.6,30.21,West,271,0.0,0.0,51,0.00,CLR,,0.00,0.0,WeatherDisplay:10.37,2013-01-23 00:51:00,
2013-01-22 19:56:00,29.3,13.9,30.21,West,271,0.0,0.0,52,0.00,CLR,,0.00,0.0,WeatherDisplay:10.37,2013-01-23 00:56:00,
2013-01-22 20:01:00,29.1,14.1,30.22,West,271,0.0,0.0,53,0.00,CLR,,0.00,0.0,WeatherDisplay:10.37,2013-01-23 01:01:00,
2013-01-22 20:11:00,28.8,15.1,30.22,West,271,0.0,0.0,56,0.00,CLR,,0.00,0.0,WeatherDisplay:10.37,2013-01-23 01:11:00,
2013-01-22 20:16:00,28.7,15.0,30.22,West,271,0.0,0.0,56,0.00,CLR,,0.00,0.0,WeatherDisplay:10.37,2013-01-23 01:16:00,
2013-01-22 20:21:00,28.5,14.4,30.22,West,271,0.0,0.0,55,0.00,CLR,,0.00,0.0,WeatherDisplay:10.37,2013-01-23 01:21:00,
2013-01-22 20:26:00,28.4,13.9,30.21,West,271,0.0,0.0,54,0.00,CLR,,0.00,0.0,WeatherDisplay:10.37,2013-01-23 01:26:00,
2013-01-22 20:31:00,28.2,14.5,30.23,West,271,0.0,0.0,56,0.00,CLR,,0.00,0.0,WeatherDisplay:10.37,2013-01-23 01:31:00,
2013-01-22 20:36:00,28.1,14.4,30.23,West,271,0.0,0.0,56,0.00,CLR,,0.00,0.0,WeatherDisplay:10.37,2013-01-23 01:36:00,
2013-01-22 20:41:00,28.1,14.0,30.23,West,271,0.0,0.0,55,0.00,CLR,,0.00,0.0,WeatherDisplay:10.37,2013-01-23 01:41:00,
2013-01-22 20:46:00,27.9,15.8,30.23,West,271,0.0,0.0,60,0.00,CLR,,0.00,0.0,WeatherDisplay:10.37,2013-01-23 01:46:00,
2013-01-22 20:51:00,27.8,15.3,30.23,West,271,0.0,0.0,59,0.00,CLR,,0.00,0.0,WeatherDisplay:10.37,2013-01-23 01:51:00,
2013-01-22 20:56:00,27.6,14.7,30.23,West,271,0.0,0.0,58,0.00,CLR,,0.00,0.0,WeatherDisplay:10.37,2013-01-23 01:56:00,
2013-01-22 21:01:00,27.5,15.0,30.23,West,271,0.0,0.0,59,0.00,CLR,,0.00,0.0,WeatherDisplay:10.37,2013-01-23 02:01:00,
2013-01-22 21:06:00,27.3,14.5,30.23,West,271,0.0,0.0,58,0.00,CLR,,0.00,0.0,WeatherDisplay:10.37,2013-01-23 02:06:00,
2013-01-22 21:16:00,27.2,14.8,30.23,West,271,0.0,0.0,59,0.00,CLR,,0.00,0.0,WeatherDisplay:10.37,2013-01-23 02:16:00,
2013-01-22 21:21:00,27.0,14.6,30.23,West,271,0.0,0.0,59,0.00,CLR,,0.00,0.0,WeatherDisplay:10.37,2013-01-23 02:21:00,
2013-01-22 21:31:00,26.9,16.0,30.24,West,271,0.0,0.0,63,0.00,CLR,,0.00,0.0,WeatherDisplay:10.37,2013-01-23 02:31:00,
2013-01-22 21:36:00,26.7,15.0,30.24,West,271,0.0,0.0,61,0.00,CLR,,0.00,0.0,WeatherDisplay:10.37,2013-01-23 02:36:00,
2013-01-22 21:41:00,26.7,13.9,30.24,West,271,0.0,0.0,58,0.00,CLR,,0.00,0.0,WeatherDisplay:10.37,2013-01-23 02:41:00,
2013-01-22 21:46:00,26.7,13.5,30.24,West,271,0.0,0.0,57,0.00,CLR,,0.00,0.0,WeatherDisplay:10.37,2013-01-23 02:46:00,
2013-01-22 21:51:00,26.7,12.7,30.24,West,271,0.0,0.0,55,0.00,CLR,,0.00,0.0,WeatherDisplay:10.37,2013-01-23 02:51:00,
2013-01-22 21:56:00,26.9,12.5,30.25,West,271,0.0,0.0,54,0.00,CLR,,0.00,0.0,WeatherDisplay:10.37,2013-01-23 02:56:00,
2013-01-22 22:01:00,26.9,11.6,30.25,West,271,0.0,0.0,52,0.00,CLR,,0.00,0.0,WeatherDisplay:10.37,2013-01-23 03:01:00,
2013-01-22 22:11:00,27.2,10.5,30.25,West,271,0.0,0.0,49,0.00,CLR,,0.00,0.0,WeatherDisplay:10.37,2013-01-23 03:11:00,
2013-01-22 22:16:00,27.3,10.6,30.25,West,271,0.0,0.0,49,0.00,CLR,,0.00,0.0,WeatherDisplay:10.37,2013-01-23 03:16:00,
2013-01-22 22:21:00,27.3,10.6,30.26,West,271,0.0,0.0,49,0.00,CLR,,0.00,0.0,WeatherDisplay:10.37,2013-01-23 03:21:00,
2013-01-22 22:31:00,27.6,10.4,30.27,West,271,0.0,0.0,48,0.00,CLR,,0.00,0.0,WeatherDisplay:10.37,2013-01-23 03:31:00,
2013-01-22 22:36:00,27.6,9.5,30.27,WNW,289,0.0,0.0,46,0.00,CLR,,0.00,0.0,WeatherDisplay:10.37,2013-01-23 03:36:00,
2013-01-22 22:41:00,27.8,9.7,30.27,WNW,301,0.0,0.0,46,0.00,CLR,,0.00,0.0,WeatherDisplay:10.37,2013-01-23 03:41:00,
2013-01-22 22:46:00,27.9,8.3,30.28,NW,322,0.0,0.0,43,0.00,CLR,,0.00,0.0,WeatherDisplay:10.37,2013-01-23 03:46:00,
2013-01-22 22:51:00,28.0,8.4,30.28,NNW,336,0.0,0.0,43,0.00,CLR,,0.00,0.0,WeatherDisplay:10.37,2013-01-23 03:51:00,
2013-01-22 22:56:00,28.1,7.9,30.27,NNW,336,0.0,0.0,42,0.00,CLR,,0.00,0.0,WeatherDisplay:10.37,2013-01-23 03:56:00,
2013-01-22 23:01:00,28.2,8.0,30.27,NNW,340,0.0,0.0,42,0.00,FEW,,0.00,0.0,WeatherDisplay:10.37,2013-01-23 04:01:00,
2013-01-22 23:11:00,28.2,6.9,30.27,North,350,0.0,0.0,40,0.00,FEW,,0.00,0.0,WeatherDisplay:10.37,2013-01-23 04:11:00,
2013-01-22 23:16:00,28.2,6.4,30.27,North,351,0.0,0.0,39,0.00,FEW,,0.00,0.0,WeatherDisplay:10.37,2013-01-23 04:16:00,
2013-01-22 23:21:00,28.2,5.8,30.27,North,351,0.0,0.0,38,0.00,FEW,,0.00,0.0,WeatherDisplay:10.37,2013-01-23 04:21:00,
2013-01-22 23:26:00,28.2,6.4,30.27,North,351,0.0,0.0,39,0.00,FEW,,0.00,0.0,WeatherDisplay:10.37,2013-01-23 04:26:00,
2013-01-22 23:31:00,28.2,7.5,30.27,North,351,0.0,0.0,41,0.00,FEW,,0.00,0.0,WeatherDisplay:10.37,2013-01-23 04:31:00,
2013-01-22 23:36:00,28.1,6.8,30.26,North,351,0.0,0.0,40,0.00,FEW,,0.00,0.0,WeatherDisplay:10.37,2013-01-23 04:36:00,
2013-01-22 23:41:00,28.1,7.4,30.26,North,351,0.0,0.0,41,0.00,FEW,,0.00,0.0,WeatherDisplay:10.37,2013-01-23 04:41:00,
2013-01-22 23:46:00,27.9,7.7,30.27,North,351,0.0,0.0,42,0.00,FEW,,0.00,0.0,WeatherDisplay:10.37,2013-01-23 04:46:00,
2013-01-22 23:51:00,27.9,8.3,30.27,North,351,0.0,0.0,43,0.00,FEW,,0.00,0.0,WeatherDisplay:10.37,2013-01-23 04:51:00,
2013-01-22 23:56:00,27.8,7.6,30.27,North,351,0.0,0.0,42,0.00,FEW,,0.00,0.0,WeatherDisplay:10.37,2013-01-23 04:56:00,